User: anonymous   Login
Location: Владивосток
(43.1151°N, 131.8856°E)
Time: 14:07:21
(UTC+10:00)
Language:

SEEDS - Orbit

View from above orbital plane
View from above orbital plane
View from above satellite
View from above satellite

Ground track
Ground track

The orbit data is extracted from the following two-line orbital elements,

1 32791U 08021J   22179.50367156  .00001473  00000-0  14781-3 0  9996
2 32791  97.6117 155.4840 0013509 146.4875 213.7202 14.92717334768925
Epoch (UTC): 28 June 2022 12:05:17
Eccentricity: 0.0013509
inclination: 97.6117°
perigee height: 580 km
apogee height: 599 km
right ascension of ascending node: 155.4840°
argument of perigee: 146.4875°
revolutions per day: 14.92717334
mean anomaly at epoch: 213.7202°
orbit number at epoch: 76892

The dashed part of the orbit path shows where the satellite is in the earth's shadow,  

DLR